This is the latest recevied weather packets stored in our database for station/object DB0FN-10. If no packets are shown the sender has not sent any weather packets the latest 10 day(s).
| Time | Temp. | Humidity | Pressure | Rain* | Wind** | Luminosity | Snow |
|---|---|---|---|---|---|---|---|
| 1787755628 | 28.89° C | 48% | 1020.7 hPa | - | - | - | - |
| 1787754727 | 28.89° C | 47% | 1020.8 hPa | - | - | - | - |
| 1787753827 | 28.89° C | 39% | 1021 hPa | - | - | - | - |
| 1787752927 | 28.89° C | 44% | 1021.2 hPa | - | - | - | - |
| 1787752027 | 28.33° C | 41% | 1021.3 hPa | - | - | - | - |
| 1787751127 | 28.89° C | 43% | 1021.6 hPa | - | - | - | - |
| 1787750227 | 28.89° C | 42% | 1021.6 hPa | - | - | - | - |
| 1787749327 | 28.33° C | 44% | 1021.6 hPa | - | - | - | - |
| 1787748426 | 28.33° C | 44% | 1021.9 hPa | - | - | - | - |
| 1787747526 | 28.33° C | 50% | 1021.7 hPa | - | - | - | - |
| 1787746626 | 28.33° C | 52% | 1021.8 hPa | - | - | - | - |
| 1787745726 | 28.33° C | 52% | 1022 hPa | - | - | - | - |
| 1787744826 | 27.78° C | 48% | 1022 hPa | - | - | - | - |
| 1787743926 | 27.78° C | 52% | 1021.9 hPa | - | - | - | - |
| 1787743026 | 28.33° C | 54% | 1022 hPa | - | - | - | - |
| 1787742126 | 27.78° C | 53% | 1022.1 hPa | - | - | - | - |
| 1787741226 | 28.33° C | 59% | 1022.1 hPa | - | - | - | - |
| 1787740326 | 27.78° C | 55% | 1022.1 hPa | - | - | - | - |
| 1787739426 | 27.22° C | 57% | 1022.3 hPa | - | - | - | - |
| 1787738526 | 26.67° C | 59% | 1022.4 hPa | - | - | - | - |
| 1787737626 | 26.67° C | 63% | 1022.4 hPa | - | - | - | - |
| 1787736725 | 26.67° C | 64% | 1022.5 hPa | - | - | - | - |
| 1787735825 | 26.11° C | 68% | 1022.5 hPa | - | - | - | - |
| 1787734925 | 26.11° C | 64% | 1022.4 hPa | - | - | - | - |
| 1787734025 | 25.56° C | 67% | 1022.3 hPa | - | - | - | - |
* Rain since midnight (hover to see other rain measurements)
** Current wind speed in m/s (hover to see current wind gust speed)